Location: Ailingen
(47.6833°N, 9.5000°E)
Time: 05:51:18
(UTC+00:00)

Aureole 3 Rocket - Pass Details

Date: 18 November 2025
Orbit: 397 x 1691 km, 82.5° (Epoch: 04 December)

Event Time Altitude Azimuth Distance (km) Brightness Sun altitude
Rises 16:54:56 0° 177° (S) 2,320 6.2 -12.2°
Reaches altitude 10° 16:56:55 10° 172° (S) 1,444 5.1 -12.5°
Maximum altitude 16:59:51 50° 95° (E) 528 2.3 -13.0°
Drops below altitude 10° 17:03:01 10° 19° (NNE) 1,567 4.8 -13.5°
Enters shadow 17:03:21 - 18° (NNE) 1,706 5.0 -13.6°
